GW2622 Weather Reports


Display with metric or nautical units.
time (UTC)temp
F
wind
direction
speed
MPH
gust
MPH
rain 1hr
in
rain 24hr
in
rain mn
in
humidity
%
barometer
mb
20260901211055 96 208 7.0 9.0 0.00 0.00 0.00 49 1012.7
20260901210550 97 192 7.0 10.0 0.00 0.00 0.00 50 1012.9
20260901210046 97 296 4.0 6.0 0.00 0.00 0.00 50 1012.9
20260901205541 97 217 6.0 10.0 0.00 0.00 0.00 49 1013.1
20260901205036 96 230 5.0 9.0 0.00 0.00 0.00 50 1012.9
20260901204532 97 227 6.0 11.0 0.00 0.00 0.00 49 1013.0
20260901204026 96 207 7.0 13.0 0.00 0.00 0.00 50 1013.2
20260901203521 96 216 8.0 10.0 0.00 0.00 0.00 50 1013.1
20260901203017 97 210 4.0 6.0 0.00 0.00 0.00 50 1013.2
20260901202511 96 232 5.0 8.0 0.00 0.00 0.00 49 1013.3
20260901202007 96 210 6.0 11.0 0.00 0.00 0.00 50 1013.4
20260901201502 96 236 4.0 10.0 0.00 0.00 0.00 52 1013.3
20260901201002 96 206 7.0 9.0 0.00 0.00 0.00 50 1013.5
20260901200451 96 242 7.0 10.0 0.00 0.00 0.00 49 1013.4
20260901195950 96 203 6.0 9.0 0.00 0.00 0.00 51 1013.5
20260901195448 96 226 7.0 9.0 0.00 0.00 0.00 52 1013.5
20260901194938 96 232 3.0 7.0 0.00 0.00 0.00 52 1013.5
20260901194432 96 216 5.0 7.0 0.00 0.00 0.00 51 1013.7
20260901193929 95 264 6.0 11.0 0.00 0.00 0.00 50 1013.9
20260901193427 96 172 4.0 10.0 0.00 0.00 0.00 49 1013.9
20260901192922 95 229 5.0 10.0 0.00 0.00 0.00 49 1014.1
20260901192417 96 236 8.0 10.0 0.00 0.00 0.00 51 1014.1
20260901191913 96 200 6.0 8.0 0.00 0.00 0.00 51 1014.1
20260901191408 96 193 7.0 10.0 0.00 0.00 0.00 53 1014.2
20260901190904 96 246 5.0 9.0 0.00 0.00 0.00 50 1014.2
20260901190359 96 181 6.0 8.0 0.00 0.00 0.00 50 1014.2
20260901185857 96 212 6.0 9.0 0.00 0.00 0.00 53 1014.4
20260901185356 96 284 3.0 5.0 0.00 0.00 0.00 52 1014.0
20260901184852 95 243 3.0 7.0 0.00 0.00 0.00 51 1014.4
20260901184347 96 209 6.0 7.0 0.00 0.00 0.00 51 1014.3
20260901183842 95 260 3.0 5.0 0.00 0.00 0.00 52 1014.5
20260901183341 94 219 5.0 8.0 0.00 0.00 0.00 55 1014.4
20260901182837 94 216 6.0 7.0 0.00 0.00 0.00 53 1014.6
20260901182332 94 207 4.0 7.0 0.00 0.00 0.00 54 1014.6
20260901181827 94 234 6.0 7.0 0.00 0.00 0.00 53 1014.6
20260901181321 94 265 5.0 6.0 0.00 0.00 0.00 53 1014.8
20260901180815 95 274 2.0 5.0 0.00 0.00 0.00 54 1014.8
20260901180314 94 254 2.0 6.0 0.00 0.00 0.00 56 1014.8
20260901175814 94 224 5.0 7.0 0.00 0.00 0.00 54 1014.8
20260901175308 93 224 3.0 5.0 0.00 0.00 0.00 55 1014.8
20260901174803 93 247 3.0 7.0 0.00 0.00 0.00 55 1014.9
20260901174259 93 196 8.0 9.0 0.00 0.00 0.00 55 1014.9
20260901173754 92 208 3.0 6.0 0.00 0.00 0.00 57 1014.9
20260901173249 93 218 3.0 6.0 0.00 0.00 0.00 56 1014.9
20260901172746 92 273 3.0 6.0 0.00 0.00 0.00 56 1014.9
20260901172244 93 215 5.0 7.0 0.00 0.00 0.00 55 1014.8
20260901171743 91 230 4.0 5.0 0.00 0.00 0.00 56 1015.0
20260901171242 91 264 2.0 9.0 0.00 0.00 0.00 55 1015.0
20260901170741 91 246 4.0 7.0 0.00 0.00 0.00 57 1015.0
20260901170236 92 208 6.0 8.0 0.00 0.00 0.00 56 1015.0
20260901165734 91 215 4.0 7.0 0.00 0.00 0.00 58 1015.1
20260901165229 91 224 4.0 7.0 0.00 0.00 0.00 61 1015.1
20260901164726 91 256 5.0 8.0 0.00 0.00 0.00 58 1015.2
20260901164221 91 214 4.0 6.0 0.00 0.00 0.00 59 1015.1
20260901163716 90 258 3.0 7.0 0.00 0.00 0.00 61 1015.0
20260901163215 90 203 4.0 5.0 0.00 0.00 0.00 62 1015.1
20260901162710 90 213 4.0 6.0 0.00 0.00 0.00 62 1015.1
20260901162210 89 265 5.0 7.0 0.00 0.00 0.00 62 1015.2
20260901161708 89 211 7.0 8.0 0.00 0.00 0.00 62 1015.0
20260901161203 88 278 3.0 7.0 0.00 0.00 0.00 65 1015.2
20260901160700 88 211 4.0 7.0 0.00 0.00 0.00 65 1015.1
20260901160155 88 213 3.0 8.0 0.00 0.00 0.00 66 1015.0
20260901155653 87 212 2.0 5.0 0.00 0.00 0.00 68 1014.9
20260901155149 87 215 4.0 6.0 0.00 0.00 0.00 66 1015.0
20260901154644 87 205 5.0 8.0 0.00 0.00 0.00 66 1015.1
20260901154138 86 226 3.0 7.0 0.00 0.00 0.00 69 1014.9
20260901153634 86 226 6.0 7.0 0.00 0.00 0.00 66 1014.8
20260901153127 86 199 4.0 6.0 0.00 0.00 0.00 69 1014.9
20260901152623 86 222 6.0 8.0 0.00 0.00 0.00 68 1015.1
20260901152121 85 216 3.0 8.0 0.00 0.00 0.00 70 1015.0
20260901151617 85 210 4.0 7.0 0.00 0.00 0.00 72 1015.2
20260901151116 84 204 4.0 8.0 0.00 0.00 0.00 72 1015.1
20260901150615 84 181 5.0 10.0 0.00 0.00 0.00 74 1015.1
20260901150113 84 185 5.0 8.0 0.00 0.00 0.00 74 1015.2
20260901145607 84 226 5.0 7.0 0.00 0.00 0.00 74 1015.1
20260901145106 83 220 4.0 7.0 0.00 0.00 0.00 75 1015.0
20260901144602 83 229 5.0 6.0 0.00 0.00 0.00 75 1015.1
20260901144057 83 214 2.0 3.0 0.00 0.00 0.00 77 1015.1
20260901143552 82 198 3.0 6.0 0.00 0.00 0.00 77 1015.2
20260901143049 82 204 4.0 6.0 0.00 0.00 0.00 79 1015.1
20260901142544 81 198 5.0 7.0 0.00 0.00 0.00 78 1015.0
20260901142043 81 230 2.0 5.0 0.00 0.00 0.00 80 1014.9
20260901141538 80 215 5.0 6.0 0.00 0.00 0.00 81 1015.1
20260901141033 80 228 4.0 7.0 0.00 0.00 0.00 81 1015.0
20260901140531 80 172 3.0 5.0 0.00 0.00 0.00 81 1015.1
20260901140021 80 245 2.0 5.0 0.00 0.00 0.00 82 1015.0
20260901135520 79 212 4.0 5.0 0.00 0.00 0.00 83 1015.2
20260901135016 79 213 4.0 6.0 0.00 0.00 0.00 85 1015.1
20260901134512 78 253 2.0 3.0 0.00 0.00 0.00 85 1015.0
20260901134006 78 186 3.0 5.0 0.00 0.00 0.00 86 1015.1
20260901133505 78 239 2.0 5.0 0.00 0.00 0.00 86 1015.1
20260901133003 78 236 2.0 3.0 0.00 0.00 0.00 88 1015.0
20260901132458 77 188 2.0 3.0 0.00 0.00 0.00 88 1015.2
20260901131956 77 248 1.0 3.0 0.00 0.00 0.00 89 1015.1
20260901131451 77 189 3.0 3.0 0.00 0.00 0.00 89 1015.1
20260901130947 77 221 2.0 3.0 0.00 0.00 0.00 89 1015.2
20260901130441 77 249 3.0 5.0 0.00 0.00 0.00 88 1015.1
20260901125939 77 263 1.0 3.0 0.00 0.00 0.00 91 1015.3
20260901125438 77 190 2.0 3.0 0.00 0.00 0.00 92 1015.2
20260901124933 77 195 3.0 3.0 0.00 0.00 0.00 92 1015.2
20260901124428 77 195 3.0 3.0 0.00 0.00 0.00 92 1015.2
20260901123923 76 235 2.0 2.0 0.00 0.00 0.00 93 1015.2
20260901123418 76 203 2.0 2.0 0.00 0.00 0.00 93 1015.0
20260901122916 76 261 1.0 1.0 0.00 0.00 0.00 93 1015.1
20260901122411 76 204 1.0 2.0 0.00 0.00 0.00 94 1014.9
20260901121910 75 269 0.0 1.0 0.00 0.00 0.00 94 1014.9
20260901121405 75 233 1.0 3.0 0.00 0.00 0.00 94 1014.9
20260901120901 75 247 1.0 2.0 0.00 0.00 0.00 95 1015.0
20260901120355 75 265 0.0 2.0 0.00 0.00 0.00 96 1015.0
20260901115850 74 241 1.0 1.0 0.00 0.00 0.00 98 1015.1
20260901115345 74 213 2.0 2.0 0.00 0.00 0.00 98 1015.0
20260901114843 74 189 2.0 2.0 0.00 0.00 0.00 99 1014.7
20260901114338 74 232 1.0 2.0 0.00 0.00 0.00 99 1014.7
20260901113836 74 188 1.0 3.0 0.00 0.00 0.00 99 1014.7
20260901113335 74 185 2.0 3.0 0.00 0.00 0.00 99 1014.6
20260901112831 75 189 3.0 3.0 0.00 0.00 0.00 99 1014.8
20260901112330 75 178 3.0 3.0 0.00 0.00 0.00 99 1014.7
20260901111825 75 189 2.0 3.0 0.00 0.00 0.00 99 1014.6
20260901111324 75 181 2.0 3.0 0.00 0.00 0.00 99 1014.6
20260901110823 74 258 0.0 0.0 0.00 0.00 0.00 99 1014.8
20260901110319 75 249 1.0 1.0 0.00 0.00 0.00 99 1014.7
20260901105815 75 264 1.0 1.0 0.00 0.00 0.00 99 1014.8
20260901105314 75 269 0.0 2.0 0.00 0.00 0.00 99 1014.6
20260901104811 74 204 1.0 2.0 0.00 0.00 0.00 99 1014.5
20260901104306 74 186 2.0 2.0 0.00 0.00 0.00 99 1014.5
20260901103801 74 245 1.0 2.0 0.00 0.00 0.00 99 1014.6
20260901103255 75 201 1.0 2.0 0.00 0.00 0.00 99 1014.7
20260901102750 75 187 2.0 3.0 0.00 0.00 0.00 99 1014.7
20260901102250 75 205 2.0 3.0 0.00 0.00 0.00 99 1014.7
20260901101746 74 252 2.0 2.0 0.00 0.00 0.00 99 1014.7
20260901101245 74 271 0.0 1.0 0.00 0.00 0.00 99 1014.6
20260901100745 74 297 0.0 0.0 0.00 0.00 0.00 99 1014.7
20260901100240 74 297 0.0 0.0 0.00 0.00 0.00 99 1014.5
20260901095738 74 297 0.0 0.0 0.00 0.00 0.00 99 1014.5
20260901095236 74 297 0.0 0.0 0.00 0.00 0.00 99 1014.5
20260901094731 74 297 0.0 0.0 0.00 0.00 0.00 99 1014.5
20260901094226 75 297 0.0 0.0 0.00 0.00 0.00 99 1014.4
20260901093721 75 305 0.0 0.0 0.00 0.00 0.00 99 1014.6
20260901093220 74 335 1.0 1.0 0.00 0.00 0.00 99 1014.4
20260901092716 75 32 1.0 1.0 0.00 0.00 0.00 99 1014.4
20260901092212 75 346 0.0 1.0 0.00 0.00 0.00 99 1014.4
20260901091707 74 310 0.0 1.0 0.00 0.00 0.00 99 1014.3
20260901091202 74 330 0.0 2.0 0.00 0.00 0.00 99 1014.6
20260901090656 74 319 0.0 2.0 0.00 0.00 0.00 99 1014.6
20260901090152 74 323 0.0 1.0 0.00 0.00 0.00 99 1014.8
20260901085648 74 327 0.0 1.0 0.00 0.00 0.00 99 1014.6
20260901085143 74 326 0.0 1.0 0.00 0.00 0.00 99 1014.6
20260901084639 74 281 0.0 0.0 0.00 0.00 0.00 99 1014.6
20260901084135 74 281 0.0 1.0 0.00 0.00 0.00 99 1014.5
20260901083630 74 281 0.0 0.0 0.00 0.00 0.00 99 1014.5
20260901083128 75 281 0.0 0.0 0.00 0.00 0.00 99 1014.7
20260901082623 75 281 0.0 0.0 0.00 0.00 0.00 99 1014.6
20260901082118 75 281 0.0 0.0 0.00 0.00 0.00 99 1014.4
20260901081614 75 281 0.0 0.0 0.00 0.00 0.00 99 1014.6
20260901081114 75 280 0.0 0.0 0.00 0.00 0.00 99 1014.4
20260901080608 75 280 0.0 0.0 0.00 0.00 0.00 99 1014.4
20260901080107 76 269 0.0 0.0 0.00 0.00 0.00 99 1014.5
20260901075603 76 226 0.0 0.0 0.00 0.00 0.00 99 1014.4
20260901075102 76 226 1.0 1.0 0.00 0.00 0.00 99 1014.3
20260901074601 76 225 1.0 2.0 0.00 0.00 0.00 99 1014.4
20260901074057 76 225 2.0 3.0 0.00 0.00 0.00 99 1014.5
20260901073554 76 237 2.0 2.0 0.00 0.00 0.00 99 1014.5
20260901073053 76 254 0.0 0.0 0.00 0.00 0.00 99 1014.5
20260901072549 76 254 0.0 0.0 0.00 0.00 0.00 99 1014.5
20260901072043 76 271 0.0 0.0 0.00 0.00 0.00 99 1014.8
20260901071538 76 271 0.0 0.0 0.00 0.00 0.00 99 1014.8
20260901071036 76 271 0.0 0.0 0.00 0.00 0.00 99 1014.6
20260901070532 76 271 0.0 0.0 0.00 0.00 0.00 99 1014.6
20260901070027 76 271 0.0 0.0 0.00 0.00 0.00 99 1014.6
20260901065521 76 272 0.0 0.0 0.00 0.00 0.00 99 1014.7
20260901065015 76 272 0.0 0.0 0.00 0.00 0.00 99 1014.9
20260901064507 76 272 0.0 0.0 0.00 0.00 0.00 99 1014.7
20260901064004 76 272 0.0 0.0 0.00 0.00 0.00 99 1015.1
20260901063500 77 272 0.0 0.0 0.00 0.00 0.00 98 1015.0
20260901062955 77 272 0.0 0.0 0.00 0.00 0.00 98 1015.0
20260901062451 77 272 0.0 0.0 0.00 0.00 0.00 98 1015.0
20260901061947 77 272 0.0 0.0 0.00 0.00 0.00 98 1015.1
20260901061443 77 272 0.0 0.0 0.00 0.00 0.00 98 1015.0
20260901060942 77 272 0.0 0.0 0.00 0.00 0.00 97 1014.9
20260901060437 78 272 0.0 0.0 0.00 0.00 0.00 97 1014.8
20260901055932 78 272 0.0 0.0 0.00 0.00 0.00 97 1015.0
20260901055429 77 272 0.0 0.0 0.00 0.00 0.00 97 1014.7
20260901054925 77 272 0.0 0.0 0.00 0.00 0.00 98 1014.8
20260901054422 77 272 0.0 0.0 0.00 0.00 0.00 98 1014.8
20260901053918 77 272 0.0 0.0 0.00 0.00 0.00 98 1014.7
20260901053413 77 272 0.0 0.0 0.00 0.00 0.00 98 1014.8
20260901052908 77 272 0.0 0.0 0.00 0.00 0.00 98 1014.8
20260901052403 78 272 0.0 0.0 0.00 0.00 0.00 98 1014.8
20260901051902 78 272 0.0 0.0 0.00 0.00 0.00 98 1014.9
20260901051357 78 272 0.0 0.0 0.00 0.00 0.00 98 1014.7
20260901050852 77 272 0.0 0.0 0.00 0.00 0.00 98 1014.6
20260901050348 78 272 0.0 0.0 0.00 0.00 0.00 98 1014.6
20260901045843 77 272 0.0 0.0 0.00 0.00 0.00 98 1014.5
20260901045342 77 272 0.0 0.0 0.00 0.00 0.00 98 1014.6
20260901044838 78 272 0.0 0.0 0.00 0.00 0.00 98 1014.6
20260901044334 78 272 0.0 0.0 0.00 0.00 0.00 98 1014.5
20260901043829 78 273 0.0 0.0 0.00 0.00 0.00 98 1014.4
20260901043325 78 273 0.0 0.0 0.00 0.00 0.00 97 1014.4
20260901042824 78 272 0.0 0.0 0.00 0.00 0.00 97 1014.5
20260901042319 78 273 0.0 0.0 0.00 0.00 0.00 96 1014.4
20260901041815 78 272 0.0 0.0 0.00 0.00 0.00 96 1014.3
20260901041310 79 272 0.0 0.0 0.00 0.00 0.00 95 1014.1
20260901040804 79 273 0.0 0.0 0.00 0.00 0.00 95 1014.1
20260901040303 79 273 0.0 0.0 0.00 0.00 0.00 97 1014.1
20260901035803 78 273 0.0 0.0 0.00 0.00 0.00 97 1014.0
20260901035305 79 273 0.0 0.0 0.00 0.00 0.00 96 1014.2
20260901034801 78 273 0.0 0.0 0.00 0.00 0.00 95 1014.0
20260901034256 79 272 0.0 0.0 0.00 0.00 0.00 95 1014.2
20260901033755 79 272 0.0 0.0 0.00 0.00 0.00 95 1014.1
20260901033255 79 273 0.0 0.0 0.00 0.00 0.00 95 1014.2
20260901032753 79 273 0.0 0.0 0.00 0.00 0.00 95 1014.2
20260901032248 79 272 0.0 0.0 0.00 0.00 0.00 94 1014.1
20260901031743 79 272 0.0 0.0 0.00 0.00 0.00 94 1014.1
20260901031239 80 272 0.0 0.0 0.00 0.00 0.00 93 1014.3
20260901030733 80 272 0.0 0.0 0.00 0.00 0.00 92 1014.3
20260901030228 81 272 0.0 0.0 0.00 0.00 0.00 91 1014.0
20260901025722 81 272 0.0 0.0 0.00 0.00 0.00 90 1014.1
20260901025217 81 272 0.0 0.0 0.00 0.00 0.00 90 1014.1
20260901024712 81 275 0.0 0.0 0.00 0.00 0.00 90 1014.2
20260901024211 82 275 0.0 0.0 0.00 0.00 0.00 90 1014.1
20260901023709 82 275 0.0 0.0 0.00 0.00 0.00 89 1014.3
20260901023204 82 275 0.0 0.0 0.00 0.00 0.00 90 1014.3
20260901022700 82 275 0.0 0.0 0.00 0.00 0.00 89 1014.2
20260901022155 82 275 0.0 0.0 0.00 0.00 0.00 89 1014.2
20260901021650 81 275 0.0 0.0 0.00 0.00 0.00 90 1014.2
20260901021145 81 275 0.0 0.0 0.00 0.00 0.00 90 1014.3
20260901020641 82 275 0.0 0.0 0.00 0.00 0.00 89 1014.2
20260901020137 82 275 0.0 0.0 0.00 0.00 0.00 89 1014.0
20260901015632 82 275 0.0 0.0 0.00 0.00 0.00 88 1013.7
20260901015131 82 275 0.0 0.0 0.00 0.00 0.00 87 1013.9
20260901014626 83 275 0.0 0.0 0.00 0.00 0.00 87 1014.0
20260901014122 82 275 0.0 0.0 0.00 0.00 0.00 88 1013.7
20260901013618 82 275 0.0 0.0 0.00 0.00 0.00 88 1013.9
20260901013114 82 275 0.0 0.0 0.00 0.00 0.00 88 1013.7
20260901012613 83 275 0.0 0.0 0.00 0.00 0.00 86 1013.5
20260901012108 84 275 0.0 0.0 0.00 0.00 0.00 85 1013.4
20260901011605 84 275 0.0 0.0 0.00 0.00 0.00 84 1013.4
20260901011103 85 275 0.0 0.0 0.00 0.00 0.00 83 1013.2
20260901010558 85 275 0.0 0.0 0.00 0.00 0.00 82 1013.1
20260901010056 86 275 0.0 0.0 0.00 0.00 0.00 82 1013.3
20260901005552 86 275 0.0 0.0 0.00 0.00 0.00 80 1013.4
20260901005047 86 275 0.0 0.0 0.00 0.00 0.00 80 1013.4
20260901004546 86 275 0.0 0.0 0.00 0.00 0.00 81 1013.3
20260901004041 86 275 0.0 0.0 0.00 0.00 0.00 82 1013.2
20260901003536 87 275 0.0 0.0 0.00 0.00 0.00 81 1013.2
20260901003034 87 275 0.0 0.0 0.00 0.00 0.00 80 1013.3
20260901002534 88 275 0.0 0.0 0.00 0.00 0.00 78 1013.1
20260901002029 88 275 0.0 0.0 0.00 0.00 0.00 78 1013.1
20260901001524 88 275 0.0 0.0 0.00 0.00 0.00 76 1013.1
20260901001019 89 275 0.0 0.0 0.00 0.00 0.00 76 1013.4
20260901000514 89 275 0.0 0.0 0.00 0.00 0.00 75 1013.1
20260901000010 89 276 0.0 0.0 0.00 0.00 0.00 75 1013.3
20260831235503 89 276 0.0 1.0 0.00 0.00 0.00 74 1013.3
20260831234959 89 272 1.0 2.0 0.00 0.00 0.00 74 1013.3
20260831234453 90 259 2.0 3.0 0.00 0.00 0.00 71 1013.1
20260831233948 91 229 2.0 5.0 0.00 0.00 0.00 71 1012.9
20260831233443 91 234 3.0 3.0 0.00 0.00 0.00 71 1013.1
20260831232939 91 221 4.0 5.0 0.00 0.00 0.00 71 1013.0
20260831232435 92 215 3.0 5.0 0.00 0.00 0.00 71 1013.1
20260831231930 92 241 3.0 6.0 0.00 0.00 0.00 70 1013.2
20260831231426 93 282 3.0 3.0 0.00 0.00 0.00 69 1013.1
20260831230922 93 269 1.0 2.0 0.00 0.00 0.00 68 1013.1
20260831230417 93 235 3.0 5.0 0.00 0.00 0.00 67 1013.1
20260831225911 93 229 3.0 3.0 0.00 0.00 0.00 66 1012.9
20260831225407 93 277 1.0 5.0 0.00 0.00 0.00 66 1013.0
20260831224902 93 206 3.0 3.0 0.00 0.00 0.00 65 1013.1
20260831224401 94 283 2.0 3.0 0.00 0.00 0.00 64 1012.9
20260831223856 94 239 3.0 5.0 0.00 0.00 0.00 63 1012.9
20260831223352 94 231 3.0 5.0 0.00 0.00 0.00 63 1013.0
20260831222849 93 228 3.0 5.0 0.00 0.00 0.00 64 1013.0
20260831222344 94 233 2.0 3.0 0.00 0.00 0.00 64 1013.0
20260831221839 95 226 4.0 6.0 0.00 0.00 0.00 63 1013.1
20260831221335 94 235 2.0 5.0 0.00 0.00 0.00 63 1013.0
20260831220829 94 217 3.0 5.0 0.00 0.00 0.00 63 1013.0
20260831220325 93 189 3.0 5.0 0.00 0.00 0.00 64 1012.9
20260831215820 94 218 3.0 6.0 0.00 0.00 0.00 64 1013.0
20260831215316 93 279 3.0 6.0 0.00 0.00 0.00 65 1013.0
20260831214812 93 239 7.0 8.0 0.00 0.00 0.00 64 1012.8
20260831214310 94 254 1.0 7.0 0.00 0.00 0.00 65 1012.9
20260831213805 94 190 6.0 9.0 0.00 0.00 0.00 63 1012.8
20260831213301 94 264 1.0 6.0 0.00 0.00 0.00 66 1012.9
20260831212756 94 202 5.0 7.0 0.00 0.00 0.00 66 1013.2
20260831212253 95 234 3.0 6.0 0.00 0.00 0.00 64 1013.0
20260831211751 94 262 1.0 5.0 0.00 0.00 0.00 63 1012.9